COSMOS 249 DEB

Satellite information

Favourite Embed

Satellite Type and Status

DEBRISIN ORBIT

Key statistics

Satellite COSMOS 249 DEB at a glance.

Uptime

20776

Days in orbit

Revolutions

≈ 12.9

Per day

Orbit

MEO

Medium Earth Orbit

Inclination

62.4

Latest

Satellite identification and parameters

Extended collection of information and parameters for COSMOS 249 DEB.

Object identification

Identified? True

Debris? True

Object name: COSMOS 249 DEB

International designator: 1968-091C

Object number (NORAD): 3506

Object ID (CCSDS): 3506

Country: COMMONWEALTH OF INDEPENDENT STATES (CIS)

Current information (Y/N): Y

RCS size: MEDIUM

Orbital parameters

Period: 111.546 minutes

Inclination: 62.3631 deg

SMA: 7675.896 km

Apoapsis: 2029.249 km

Periapsis: 566.272 km

RAAN: 237.0481 deg

Eccentricy: 0.09529682

Argument of periapsis: 206.7648 deg

Mean anomaly: 148.1004 deg

Mean motion: 12.90949204 rev/day

Mean motion (dot): 0.00000084 rev/day2

B* drag term: 0.00008385488 1/REarth

Two-line elements (TLE)

Creation date: Sept. 7, 2025, 3:09 a.m.

Reference frame: TEME

Reference center: EARTH

Epoch: Sept. 6, 2025, 5:02 p.m. UTC

TLE line 0: 0 COSMOS 249 DEB

TLE line 1: 1 03506U 68091C 25249.71038585 .00000084 00000-0 83855-4 0 9992

TLE line 2: 2 03506 62.3631 237.0481 0952968 206.7648 148.1004 12.90949204669889

Live tracking on map

Real-time ground track for satellite COSMOS 249 DEB.

In-orbit conjunctions

A list of the most updated potential collisions computed for object COSMOS 249 DEB.

Target Orbit TCA Probability of collision Miss distance Type
CZ-6A DEB LEO 2024-12-03 15:24:03 0.0002361288 186.0 (m) DEBRIS

Associated space launch

The I2P satellites were the first soviet coorbital ASAT system.

COSMOS 249 DEB was lifted into orbit during the mission ‘Tsiklon-2A | I2P 1’, on board a Tsiklon-2A space rocket.

The launch took place on Oct. 20, 1968, 4:02 a.m. from 90/20.

For more information about the launch, click the button.

Launch to space Tsiklon-2A | I2P 1
Tsiklon-2A | I2P 1

Agency: N/A

Status: Launch Successful

Launch date: Oct. 20, 1968, 4:02 a.m. UTC

Rocket: Tsiklon-2A

Launch pad: 90/20

Location: Baikonur Cosmodrome, Republic of Kazakhstan

...

Latest news about this satellite

There are no fresh news available about this satellite. Check back as we update our databases every day.


Newsletter sign-up

Weekly statistics, charts and insights to help you stay on top of the space industry.